Regional Weather Roundup
Issued by NWS Northern Indiana

Home | Current Version | Previous Version | Graphics & Text | Print | Product List | Glossary Off
Versions: 1 2 3 4 5 6 7 8 9 10 11 12 13 14 15 16 17 18 19 20 21 22 23 24 25 26 27 28 29 30 31 32 33 34 35 36 37 38 39 40 41 42 43 44 45 46 47 48 49 50

000
ASUS43 KIWX 280110
RWRIWX

KIWX WEATHER ROUNDUP
NATIONAL WEATHER SERVICE NORTHERN INDIANA
900 PM EDT THU APR 27 2017

NOTE: "FAIR" INDICATES FEW OR NO CLOUDS BELOW 12,000 FEET WITH NO
SIGNIFICANT WEATHER AND/OR OBSTRUCTIONS TO VISIBILITY.

* THESE STATIONS ARE NOT UNDER NWS QUALITY CONTROL. THEY ALSO MAY NOT
  REPORT WEATHER SUCH AS PRECIPITATION OR FOG.

INZ001>027-280200-
NORTHERN INDIANA

CITY           SKY/WX    TMP DP  RH WIND       PRES   REMARKS
GARY*          CLOUDY    48  37  66 SW15G26   29.80R
VALPARAISO     CLOUDY    49  41  74 SW13      29.80R
MICHIGAN CITY* CLOUDY    46  39  76 SW15G22   29.78R
LAPORTE*       CLOUDY    47  41  80 SW12      29.79R
KNOX*          CLOUDY    46  23  39 SW13      29.79R
SOUTH BEND     CLOUDY    47  41  80 SW12      29.79R
ELKHART*       CLOUDY    48  39  71 SW14      29.77R
GOSHEN         CLOUDY    49  39  68 SW12      29.79R
MONTICELLO*    CLOUDY    48  42  79 SW12      29.81R
LOGANSPORT*    CLOUDY    48  41  76 SW9       29.82R
ROCHESTER*     CLOUDY    50  43  76 W9        29.81R
WARSAW*        CLOUDY    48  39  71 SW10      29.80R
ANGOLA*        CLOUDY    48  43  81 W9        29.77R
FORT WAYNE     CLOUDY    51  43  74 W9        29.81R
HUNTINGTON*    CLOUDY    49  44  82 W9        29.81R
PERU/GRISSOM   CLOUDY    50  45  81 W9        29.80R

$$
INZ028>050-280200-
CENTRAL INDIANA

CITY           SKY/WX    TMP DP  RH WIND       PRES   REMARKS
LAFAYETTE      CLOUDY    48  43  82 SW5       29.83R
KOKOMO*        CLOUDY    51  43  74 SW10      29.82R
MUNCIE*        PTCLDY    52  45  77 W6        29.81R
INDIANAPOLIS   MOCLDY    53  43  68 W10       29.83R

$$
MIZ043>046-050>051-056>058-064>065-071>073-077>080-280200-
SOUTHWEST LOWER MICHIGAN

CITY           SKY/WX    TMP DP  RH WIND       PRES   REMARKS
BATTLE CREEK   CLOUDY    48  39  71 SW12      29.75R
BENTON HARBOR  CLOUDY    47  38  71 SW15      29.77R
COLDWATER*     CLOUDY    48  38  69 SW10      29.77R
HILLSDALE*     CLOUDY    46  37  71 W12G25    29.75R
HOLLAND        CLOUDY    44  39  82 SW12      29.75R
GRAND RAPIDS   CLOUDY    44  41  89 SW16G25   29.73R
KALAMAZOO      CLOUDY    48  37  65 SW10      29.76R
STURGIS*       CLOUDY    47  39  73 W12G20    29.77R
THREE RIVERS*  CLOUDY    47  39  71 SW10      29.77R

$$
OHZ001>008-015>018-024>025-280200-
NORTHWEST OHIO

CITY           SKY/WX    TMP DP  RH WIND       PRES   REMARKS
WAUSEON*       CLOUDY    52  43  71 W14       29.77R
DEFIANCE       CLOUDY    51  42  71 W8        29.79R
FINDLAY        CLEAR     52  40  63 W12       29.78R
TOLEDO EXPRESS CLOUDY    53  42  66 SW18      29.77R
TOLEDO METCALF CLOUDY    53  43  68 W18G28    29.78R
LIMA           CLEAR     50  43  77 W7        29.80R

$$
AND FOR LAKE MICHIGAN COASTAL AND OPEN LAKE BUOY OBSERVATIONS

STATION/POSITION TEMP    WIND        PRES    VSBY  WAVE
                 AIR SEA DIR/SP/G                  HT/PER
                 (F)     (DEG/KT/KT) (MB)    (MI)  (FT/S)
CALUMET HARBOR    47     250/  9/ 16 1007.8R
MICHIGAN CITY     48     200/ 16/ 19   N/A
BURNS HARBOR      48     230/ 13/ 19 1008.5R
SOUTH LAKE BUOY   43 41  250/ 14/ 17 1006.5          3/ 5
4 MI NW BRIDGMAN  46 48  260/ 10/ 14 1008.8          3/ 4
MICHIGAN CITY     47 47                N/A           3/ 4

$$
&&




USA.gov is the U.S. government's official web portal to all federal, state and local government web resources and services.